Location: Grand Lay
(47.3253°N, 0.9468°E)
Time: 18:02:37
(UTC+00:00)

Cosmos 1484 Rocket - Pass Details

Date: 18 January 2026
Orbit: 439 x 466 km, 97.6° (Epoch: 18 February)

Event Time Altitude Azimuth Distance (km) Brightness Sun altitude
Rises 06:39:43 0° 2° (N) 2,459 6.0 -9.6°
Reaches altitude 10° 06:41:56 10° 350° (N) 1,587 4.9 -9.2°
Maximum altitude 06:44:49 26° 292° (WNW) 919 3.4 -8.8°
Drops below altitude 10° 06:47:44 10° 233° (SW) 1,590 4.9 -8.3°
Sets 06:49:57 0° 221° (SW) 2,464 6.0 -8.0°
